TIANLIAN 2-01 (44076 NORAD) Tracking and Keplerian Element Data

This shows tracking and keplerian element data for the satellite.

Feedback or suggestion? Click here.




ElementValue
Catalog44076
NameTIANLIAN 2-01
Epoch Orbit40
Epoch Day111.53920807
Epoch Year2019
RAAN290.6026
Inclination2.979
Eccentricity0.00303
Argument of Perigee199.3341
Mean Anonmoly353.4994
Mean Motion1.00272141
Decay Rate-1.57E-06
L11 44076U 19017A 19111.53920807 -.00000157 00000-0 00000+0 0 9999
L22 44076 2.9790 290.6026 0030300 199.3341 353.4994 1.00272141 400

Live tracking and technical data element details for TIANLIAN 2-01 (NORAD 44076). TIANLIAN 2-01 can be tracked NOW for your location showing map with azimuth and elevation plus other details from your city location.

Track the satellite on the map from your city or location and see movement details for azimuth, elevation, latitude, longitude, range, height, and movement on the map or in text.







IsCatalogInMostPopularTable: catalog: 44076, numindb: 2
Update: records affected: 1



GetName: 44076 TIANLIAN 2-01

Hit Count: updated at: Tue, 23 Apr 2019 02:00:16 GMT